Year,Month,Day,Hour,Minute,Value (Times are PST for temperature in C)
2014,09,12,00,00,10.60
2014,09,12,00,01,10.60
2014,09,12,00,02,10.50
2014,09,12,00,03,10.50
2014,09,12,00,04,10.50
2014,09,12,00,05,10.50
2014,09,12,00,06,10.50
2014,09,12,00,07,10.50
2014,09,12,00,08,10.40
2014,09,12,00,09,10.40
2014,09,12,00,10,10.40
2014,09,12,00,11,10.40
2014,09,12,00,12,10.40
2014,09,12,00,13,10.40
2014,09,12,00,14,10.40
2014,09,12,00,15,10.40
2014,09,12,00,16,10.40
2014,09,12,00,17,10.40
2014,09,12,00,18,10.40
2014,09,12,00,19,10.40
2014,09,12,00,20,10.40
2014,09,12,00,21,10.30
2014,09,12,00,22,10.30
2014,09,12,00,23,10.30
2014,09,12,00,24,10.30
2014,09,12,00,25,10.30
2014,09,12,00,26,10.30
2014,09,12,00,27,10.30
2014,09,12,00,28,10.30
2014,09,12,00,29,10.30
2014,09,12,00,30,10.30
2014,09,12,00,31,10.30
2014,09,12,00,32,10.30
2014,09,12,00,33,10.30
2014,09,12,00,34,10.30
2014,09,12,00,35,10.30
2014,09,12,00,36,10.30
2014,09,12,00,37,10.30
2014,09,12,00,38,10.30
2014,09,12,00,39,10.20
2014,09,12,00,40,10.20
2014,09,12,00,41,10.20
2014,09,12,00,42,10.20
2014,09,12,00,43,10.20
2014,09,12,00,44,10.10
2014,09,12,00,45,10.10
2014,09,12,00,46,10.10
2014,09,12,00,47,10.10
2014,09,12,00,48,10.10
2014,09,12,00,49,10.00
2014,09,12,00,50,10.00
2014,09,12,00,51,10.00
2014,09,12,00,52,10.00
2014,09,12,00,53,10.00
2014,09,12,00,54,10.00
2014,09,12,00,55,10.00
2014,09,12,00,56,10.00
2014,09,12,00,57,10.00
2014,09,12,00,58,9.90
2014,09,12,00,59,9.90
2014,09,12,01,00,9.90
2014,09,12,01,01,9.90
2014,09,12,01,02,9.90
2014,09,12,01,03,9.80
2014,09,12,01,04,9.80
2014,09,12,01,05,9.80
2014,09,12,01,06,9.80
2014,09,12,01,07,9.80
2014,09,12,01,08,9.80
2014,09,12,01,09,9.80
2014,09,12,01,10,9.70
2014,09,12,01,11,9.70
2014,09,12,01,12,9.70
2014,09,12,01,13,9.70
2014,09,12,01,14,9.70
2014,09,12,01,15,9.60
2014,09,12,01,16,9.60
2014,09,12,01,17,9.60
2014,09,12,01,18,9.60
2014,09,12,01,19,9.60
2014,09,12,01,20,9.60
2014,09,12,01,21,9.60
2014,09,12,01,22,9.60
2014,09,12,01,23,9.60
2014,09,12,01,24,9.60
2014,09,12,01,25,9.60
2014,09,12,01,26,9.60
2014,09,12,01,27,9.60
2014,09,12,01,28,9.60
2014,09,12,01,29,9.60
2014,09,12,01,30,9.70
2014,09,12,01,31,9.70
2014,09,12,01,32,9.70
2014,09,12,01,33,9.70
2014,09,12,01,34,9.70
2014,09,12,01,35,9.70
2014,09,12,01,36,9.70
2014,09,12,01,37,9.70
2014,09,12,01,38,9.70
2014,09,12,01,39,9.70
2014,09,12,01,40,9.70
2014,09,12,01,41,9.70
2014,09,12,01,42,9.60
2014,09,12,01,43,9.60
2014,09,12,01,44,9.60
2014,09,12,01,45,9.60
2014,09,12,01,46,9.60
2014,09,12,01,47,9.60
2014,09,12,01,48,9.60
2014,09,12,01,49,9.60
2014,09,12,01,50,9.60
2014,09,12,01,51,9.60
2014,09,12,01,52,9.60
2014,09,12,01,53,9.60
2014,09,12,01,54,9.60
2014,09,12,01,55,9.60
2014,09,12,01,56,9.60
2014,09,12,01,57,9.60
2014,09,12,01,58,9.60
2014,09,12,01,59,9.60
2014,09,12,02,00,9.60
2014,09,12,02,01,9.60
2014,09,12,02,02,9.60
2014,09,12,02,03,9.50
2014,09,12,02,04,9.50
2014,09,12,02,05,9.50
2014,09,12,02,06,9.50
2014,09,12,02,07,9.50
2014,09,12,02,08,9.50
2014,09,12,02,09,9.50
2014,09,12,02,10,9.40
2014,09,12,02,11,9.40
2014,09,12,02,12,9.40
2014,09,12,02,13,9.40
2014,09,12,02,14,9.40
2014,09,12,02,15,9.40
2014,09,12,02,16,9.30
2014,09,12,02,17,9.30
2014,09,12,02,18,9.30
2014,09,12,02,19,9.30
2014,09,12,02,20,9.20
2014,09,12,02,21,9.20
2014,09,12,02,22,9.20
2014,09,12,02,23,9.20
2014,09,12,02,24,9.10
2014,09,12,02,25,9.10
2014,09,12,02,26,9.10
2014,09,12,02,27,9.10
2014,09,12,02,28,9.00
2014,09,12,02,29,9.00
2014,09,12,02,30,9.00
2014,09,12,02,31,9.00
2014,09,12,02,32,9.00
2014,09,12,02,33,9.00
2014,09,12,02,34,9.00
2014,09,12,02,35,8.90
2014,09,12,02,36,8.90
2014,09,12,02,37,8.90
2014,09,12,02,38,8.90
2014,09,12,02,39,8.90
2014,09,12,02,40,8.90
2014,09,12,02,41,8.90
2014,09,12,02,42,8.90
2014,09,12,02,43,8.90
2014,09,12,02,44,8.90
2014,09,12,02,45,8.80
2014,09,12,02,46,8.80
2014,09,12,02,47,8.80
2014,09,12,02,48,8.80
2014,09,12,02,49,8.80
2014,09,12,02,50,8.80
2014,09,12,02,51,8.80
2014,09,12,02,52,8.90
2014,09,12,02,53,8.90
2014,09,12,02,54,8.90
2014,09,12,02,55,8.90
2014,09,12,02,56,8.90
2014,09,12,02,57,8.90
2014,09,12,02,58,8.90
2014,09,12,02,59,8.90
2014,09,12,03,00,8.90
2014,09,12,03,01,8.90
2014,09,12,03,02,8.90
2014,09,12,03,03,8.90
2014,09,12,03,04,8.90
2014,09,12,03,05,8.90
2014,09,12,03,06,8.90
2014,09,12,03,07,8.90
2014,09,12,03,08,8.90
2014,09,12,03,09,8.90
2014,09,12,03,10,8.80
2014,09,12,03,11,8.80
2014,09,12,03,12,8.80
2014,09,12,03,13,8.80
2014,09,12,03,14,8.80
2014,09,12,03,15,8.80
2014,09,12,03,16,8.80
2014,09,12,03,17,8.80
2014,09,12,03,18,8.80
2014,09,12,03,19,8.80
2014,09,12,03,20,8.80
2014,09,12,03,21,8.80
2014,09,12,03,22,8.80
2014,09,12,03,23,8.80
2014,09,12,03,24,8.80
2014,09,12,03,25,8.80
2014,09,12,03,26,8.80
2014,09,12,03,27,8.80
2014,09,12,03,28,8.80
2014,09,12,03,29,8.80
2014,09,12,03,30,8.80
2014,09,12,03,31,8.80
2014,09,12,03,32,8.80
2014,09,12,03,33,8.80
2014,09,12,03,34,8.80
2014,09,12,03,35,8.80
2014,09,12,03,36,8.80
2014,09,12,03,37,8.80
2014,09,12,03,38,8.80
2014,09,12,03,39,8.80
2014,09,12,03,40,8.80
2014,09,12,03,41,8.80
2014,09,12,03,42,8.80
2014,09,12,03,43,8.80
2014,09,12,03,44,8.80
2014,09,12,03,45,8.80
2014,09,12,03,46,8.80
2014,09,12,03,47,8.80
2014,09,12,03,48,8.80
2014,09,12,03,49,8.80
2014,09,12,03,50,8.80
2014,09,12,03,51,8.80
2014,09,12,03,52,8.80
2014,09,12,03,53,8.80
2014,09,12,03,54,8.80
2014,09,12,03,55,8.80
2014,09,12,03,56,8.80
2014,09,12,03,57,8.80
2014,09,12,03,58,8.80
2014,09,12,03,59,8.70
2014,09,12,04,00,8.70
2014,09,12,04,01,8.70
2014,09,12,04,02,8.70
2014,09,12,04,03,8.70
2014,09,12,04,04,8.70
2014,09,12,04,05,8.70
2014,09,12,04,06,8.60
2014,09,12,04,07,8.60
2014,09,12,04,08,8.60
2014,09,12,04,09,8.50
2014,09,12,04,10,8.50
2014,09,12,04,11,8.40
2014,09,12,04,12,8.40
2014,09,12,04,13,8.40
2014,09,12,04,14,8.40
2014,09,12,04,15,8.40
2014,09,12,04,16,8.40
2014,09,12,04,17,8.40
2014,09,12,04,18,8.40
2014,09,12,04,19,8.40
2014,09,12,04,20,8.40
2014,09,12,04,21,8.40
2014,09,12,04,22,8.40
2014,09,12,04,23,8.40
2014,09,12,04,24,8.40
2014,09,12,04,25,8.40
2014,09,12,04,26,8.40
2014,09,12,04,27,8.40
2014,09,12,04,28,8.30
2014,09,12,04,29,8.30
2014,09,12,04,30,8.30
2014,09,12,04,31,8.30
2014,09,12,04,32,8.30
2014,09,12,04,33,8.30
2014,09,12,04,34,8.30
2014,09,12,04,35,8.30
2014,09,12,04,36,8.30
2014,09,12,04,37,8.30
2014,09,12,04,38,8.30
2014,09,12,04,39,8.30
2014,09,12,04,40,8.30
2014,09,12,04,41,8.30
2014,09,12,04,42,8.30
2014,09,12,04,43,8.30
2014,09,12,04,44,8.30
2014,09,12,04,45,8.30
2014,09,12,04,46,8.20
2014,09,12,04,47,8.20
2014,09,12,04,48,8.20
2014,09,12,04,49,8.20
2014,09,12,04,50,8.10
2014,09,12,04,51,8.10
2014,09,12,04,52,8.10
2014,09,12,04,53,8.00
2014,09,12,04,54,8.00
2014,09,12,04,55,8.00
2014,09,12,04,56,7.90
2014,09,12,04,57,7.90
2014,09,12,04,58,7.90
2014,09,12,04,59,7.90
2014,09,12,05,00,7.90
2014,09,12,05,01,7.90
2014,09,12,05,02,7.90
2014,09,12,05,03,7.90
2014,09,12,05,04,7.80
2014,09,12,05,05,7.80
2014,09,12,05,06,7.80
2014,09,12,05,07,7.80
2014,09,12,05,08,7.80
2014,09,12,05,09,7.80
2014,09,12,05,10,7.80
2014,09,12,05,11,7.80
2014,09,12,05,12,7.80
2014,09,12,05,13,7.80
2014,09,12,05,14,7.80
2014,09,12,05,15,7.80
2014,09,12,05,16,7.80
2014,09,12,05,17,7.80
2014,09,12,05,18,7.80
2014,09,12,05,19,7.80
2014,09,12,05,20,7.80
2014,09,12,05,21,7.70
2014,09,12,05,22,7.70
2014,09,12,05,23,7.70
2014,09,12,05,24,7.60
2014,09,12,05,25,7.60
2014,09,12,05,26,7.60
2014,09,12,05,27,7.60
2014,09,12,05,28,7.50
2014,09,12,05,29,7.50
2014,09,12,05,30,7.50
2014,09,12,05,31,7.40
2014,09,12,05,32,7.40
2014,09,12,05,33,7.40
2014,09,12,05,34,7.40
2014,09,12,05,35,7.40
2014,09,12,05,36,7.40
2014,09,12,05,37,7.40
2014,09,12,05,38,7.40
2014,09,12,05,39,7.50
2014,09,12,05,40,7.50
2014,09,12,05,41,7.50
2014,09,12,05,42,7.60
2014,09,12,05,43,7.60
2014,09,12,05,44,7.60
2014,09,12,05,45,7.60
2014,09,12,05,46,7.60
2014,09,12,05,47,7.60
2014,09,12,05,48,7.60
2014,09,12,05,49,7.60
2014,09,12,05,50,7.60
2014,09,12,05,51,7.60
2014,09,12,05,52,7.60
2014,09,12,05,53,7.60
2014,09,12,05,54,7.60
2014,09,12,05,55,7.60
2014,09,12,05,56,7.60
2014,09,12,05,57,7.60
2014,09,12,05,58,7.60
2014,09,12,05,59,7.70
2014,09,12,06,00,7.70
2014,09,12,06,01,7.70
2014,09,12,06,02,7.70
2014,09,12,06,03,7.70
2014,09,12,06,04,7.70
2014,09,12,06,05,7.70
2014,09,12,06,06,7.70
2014,09,12,06,07,7.70
2014,09,12,06,08,7.70
2014,09,12,06,09,7.70
2014,09,12,06,10,7.70
2014,09,12,06,11,7.60
2014,09,12,06,12,7.60
2014,09,12,06,13,7.60
2014,09,12,06,14,7.60
2014,09,12,06,15,7.60
2014,09,12,06,16,7.50
2014,09,12,06,17,7.50
2014,09,12,06,18,7.40
2014,09,12,06,19,7.40
2014,09,12,06,20,7.40
2014,09,12,06,21,7.40
2014,09,12,06,22,7.40
2014,09,12,06,23,7.40
2014,09,12,06,24,7.40
2014,09,12,06,25,7.40
2014,09,12,06,26,7.40
2014,09,12,06,27,7.40
2014,09,12,06,28,7.40
2014,09,12,06,29,7.40
2014,09,12,06,30,7.40
2014,09,12,06,31,7.40
2014,09,12,06,32,7.40
2014,09,12,06,33,7.40
2014,09,12,06,34,7.40
2014,09,12,06,35,7.30
2014,09,12,06,36,7.40
2014,09,12,06,37,7.40
2014,09,12,06,38,7.40
2014,09,12,06,39,7.50
2014,09,12,06,40,7.50
2014,09,12,06,41,7.50
2014,09,12,06,42,7.60
2014,09,12,06,43,7.60
2014,09,12,06,44,7.60
2014,09,12,06,45,7.60
2014,09,12,06,46,7.60
2014,09,12,06,47,7.60
2014,09,12,06,48,7.50
2014,09,12,06,49,7.50
2014,09,12,06,50,7.40
2014,09,12,06,51,7.40
2014,09,12,06,52,7.30
2014,09,12,06,53,7.30
2014,09,12,06,54,7.30
2014,09,12,06,55,7.20
2014,09,12,06,56,7.20
2014,09,12,06,57,7.20
2014,09,12,06,58,7.20
2014,09,12,06,59,7.20
2014,09,12,07,00,7.20
2014,09,12,07,01,7.20
2014,09,12,07,02,7.20
2014,09,12,07,03,7.20
2014,09,12,07,04,7.20
2014,09,12,07,05,7.20
2014,09,12,07,06,7.20
2014,09,12,07,07,7.20
2014,09,12,07,08,7.20
2014,09,12,07,09,7.20
2014,09,12,07,10,7.20
2014,09,12,07,11,7.20
2014,09,12,07,12,7.20
2014,09,12,07,13,7.20
2014,09,12,07,14,7.30
2014,09,12,07,15,7.30
2014,09,12,07,16,7.30
2014,09,12,07,17,7.30
2014,09,12,07,18,7.40
2014,09,12,07,19,7.40
2014,09,12,07,20,7.40
2014,09,12,07,21,7.50
2014,09,12,07,22,7.50
2014,09,12,07,23,7.50
2014,09,12,07,24,7.60
2014,09,12,07,25,7.60
2014,09,12,07,26,7.60
2014,09,12,07,27,7.60
2014,09,12,07,28,7.60
2014,09,12,07,29,7.60
2014,09,12,07,30,7.60
2014,09,12,07,31,7.60
2014,09,12,07,32,7.60
2014,09,12,07,33,7.60
2014,09,12,07,34,7.70
2014,09,12,07,35,7.70
2014,09,12,07,36,7.70
2014,09,12,07,37,7.70
2014,09,12,07,38,7.70
2014,09,12,07,39,7.70
2014,09,12,07,40,7.70
2014,09,12,07,41,7.80
2014,09,12,07,42,7.80
2014,09,12,07,43,7.70
2014,09,12,07,44,7.70
2014,09,12,07,45,7.70
2014,09,12,07,46,7.70
2014,09,12,07,47,7.70
2014,09,12,07,48,7.70
2014,09,12,07,49,7.70
2014,09,12,07,50,7.70
2014,09,12,07,51,7.70
2014,09,12,07,52,7.70
2014,09,12,07,53,7.70
2014,09,12,07,54,7.70
2014,09,12,07,55,7.80
2014,09,12,07,56,7.80
2014,09,12,07,57,7.80
2014,09,12,07,58,7.80
2014,09,12,07,59,7.80
2014,09,12,08,00,7.90
2014,09,12,08,01,7.90
2014,09,12,08,02,8.00
2014,09,12,08,03,8.00
2014,09,12,08,04,8.10
2014,09,12,08,05,8.20
2014,09,12,08,06,8.20
2014,09,12,08,07,8.20
2014,09,12,08,08,8.30
2014,09,12,08,09,8.30
2014,09,12,08,10,8.30
2014,09,12,08,11,8.40
2014,09,12,08,12,8.40
2014,09,12,08,13,8.50
2014,09,12,08,14,8.50
2014,09,12,08,15,8.60
2014,09,12,08,16,8.60
2014,09,12,08,17,8.60
2014,09,12,08,18,8.60
2014,09,12,08,19,8.70
2014,09,12,08,20,8.70
2014,09,12,08,21,8.70
2014,09,12,08,22,8.80
2014,09,12,08,23,8.80
2014,09,12,08,24,8.90
2014,09,12,08,25,8.90
2014,09,12,08,26,9.00
2014,09,12,08,27,9.10
2014,09,12,08,28,9.10
2014,09,12,08,29,9.20
2014,09,12,08,30,9.30
2014,09,12,08,31,9.40
2014,09,12,08,32,9.50
2014,09,12,08,33,9.60
2014,09,12,08,34,9.70
2014,09,12,08,35,9.80
2014,09,12,08,36,9.90
2014,09,12,08,37,10.10
2014,09,12,08,38,10.20
2014,09,12,08,39,10.30
2014,09,12,08,40,10.40
2014,09,12,08,41,10.50
2014,09,12,08,42,10.60
2014,09,12,08,43,10.70
2014,09,12,08,44,10.80
2014,09,12,08,45,10.80
2014,09,12,08,46,10.90
2014,09,12,08,47,11.00
2014,09,12,08,48,11.10
2014,09,12,08,49,11.20
2014,09,12,08,50,11.30
2014,09,12,08,51,11.40
2014,09,12,08,52,11.50
2014,09,12,08,53,11.60
2014,09,12,08,54,11.70
2014,09,12,08,55,11.70
2014,09,12,08,56,11.80
2014,09,12,08,57,12.00
2014,09,12,08,58,12.10
2014,09,12,08,59,12.20
2014,09,12,09,00,12.30
2014,09,12,09,01,12.40
2014,09,12,09,02,12.50
2014,09,12,09,03,12.60
2014,09,12,09,04,12.80
2014,09,12,09,05,12.90
2014,09,12,09,06,13.10
2014,09,12,09,07,13.20
2014,09,12,09,08,13.30
2014,09,12,09,09,13.40
2014,09,12,09,10,13.60
2014,09,12,09,11,13.70
2014,09,12,09,12,13.80
2014,09,12,09,13,13.90
2014,09,12,09,14,14.10
2014,09,12,09,15,14.20
2014,09,12,09,16,14.30
2014,09,12,09,17,14.40
2014,09,12,09,18,14.50
2014,09,12,09,19,14.60
2014,09,12,09,20,14.70
2014,09,12,09,21,14.70
2014,09,12,09,22,14.80
2014,09,12,09,23,14.80
2014,09,12,09,24,14.90
2014,09,12,09,25,14.90
2014,09,12,09,26,15.00
2014,09,12,09,27,15.10
2014,09,12,09,28,15.20
2014,09,12,09,29,15.30
2014,09,12,09,30,15.40
2014,09,12,09,31,15.60
2014,09,12,09,32,15.70
2014,09,12,09,33,15.80
2014,09,12,09,34,15.80
2014,09,12,09,35,15.90
2014,09,12,09,36,16.00
2014,09,12,09,37,16.10
2014,09,12,09,38,16.10
2014,09,12,09,39,16.20
2014,09,12,09,40,16.20
2014,09,12,09,41,16.30
2014,09,12,09,42,16.40
2014,09,12,09,43,16.50
2014,09,12,09,44,16.50
2014,09,12,09,45,16.60
2014,09,12,09,46,16.70
2014,09,12,09,47,16.80
2014,09,12,09,48,16.80
2014,09,12,09,49,16.90
2014,09,12,09,50,16.90
2014,09,12,09,51,17.00
2014,09,12,09,52,17.10
2014,09,12,09,53,17.20
2014,09,12,09,54,17.20
2014,09,12,09,55,17.30
2014,09,12,09,56,17.30
2014,09,12,09,57,17.30
2014,09,12,09,58,17.40
2014,09,12,09,59,17.40
2014,09,12,10,00,17.40
2014,09,12,10,01,17.50
2014,09,12,10,02,17.50
2014,09,12,10,03,17.60
2014,09,12,10,04,17.60
2014,09,12,10,05,17.70
2014,09,12,10,06,17.70
2014,09,12,10,07,17.80
2014,09,12,10,08,17.80
2014,09,12,10,09,17.90
2014,09,12,10,10,17.90
2014,09,12,10,11,17.90
2014,09,12,10,12,17.90
2014,09,12,10,13,17.90
2014,09,12,10,14,17.90
2014,09,12,10,15,17.90
2014,09,12,10,16,17.90
2014,09,12,10,17,17.90
2014,09,12,10,18,18.00
2014,09,12,10,19,18.00
2014,09,12,10,20,18.00
2014,09,12,10,21,18.00
2014,09,12,10,22,18.10
2014,09,12,10,23,18.10
2014,09,12,10,24,18.10
2014,09,12,10,25,18.20
2014,09,12,10,26,18.20
2014,09,12,10,27,18.20
2014,09,12,10,28,18.20
2014,09,12,10,29,18.30
2014,09,12,10,30,18.30
2014,09,12,10,31,18.30
2014,09,12,10,32,18.40
2014,09,12,10,33,18.40
2014,09,12,10,34,18.50
2014,09,12,10,35,18.50
2014,09,12,10,36,18.60
2014,09,12,10,37,18.60
2014,09,12,10,38,18.70
2014,09,12,10,39,18.70
2014,09,12,10,40,18.80
2014,09,12,10,41,18.80
2014,09,12,10,42,18.80
2014,09,12,10,43,18.90
2014,09,12,10,44,18.90
2014,09,12,10,45,19.00
2014,09,12,10,46,19.10
2014,09,12,10,47,19.10
2014,09,12,10,48,19.20
2014,09,12,10,49,19.20
2014,09,12,10,50,19.30
2014,09,12,10,51,19.30
2014,09,12,10,52,19.30
2014,09,12,10,53,19.40
2014,09,12,10,54,19.40
2014,09,12,10,55,19.50
2014,09,12,10,56,19.50
2014,09,12,10,57,19.60
2014,09,12,10,58,19.70
2014,09,12,10,59,19.70
2014,09,12,11,00,19.70
2014,09,12,11,01,19.70
2014,09,12,11,02,19.70
2014,09,12,11,03,19.70
2014,09,12,11,04,19.70
2014,09,12,11,05,19.80
2014,09,12,11,06,19.80
2014,09,12,11,07,19.80
2014,09,12,11,08,19.80
2014,09,12,11,09,19.80
2014,09,12,11,10,19.90
2014,09,12,11,11,19.90
2014,09,12,11,12,19.90
2014,09,12,11,13,19.90
2014,09,12,11,14,19.90
2014,09,12,11,15,19.90
2014,09,12,11,16,19.90
2014,09,12,11,17,19.90
2014,09,12,11,18,20.00
2014,09,12,11,19,20.00
2014,09,12,11,20,20.10
2014,09,12,11,21,20.10
2014,09,12,11,22,20.10
2014,09,12,11,23,20.10
2014,09,12,11,24,20.10
2014,09,12,11,25,20.10
2014,09,12,11,26,20.10
2014,09,12,11,27,20.10
2014,09,12,11,28,20.20
2014,09,12,11,29,20.20
2014,09,12,11,30,20.20
2014,09,12,11,31,20.20
2014,09,12,11,32,20.20
2014,09,12,11,33,20.20
2014,09,12,11,34,20.20
2014,09,12,11,35,20.20
2014,09,12,11,36,20.20
2014,09,12,11,37,20.20
2014,09,12,11,38,20.20
2014,09,12,11,39,20.20
2014,09,12,11,40,20.20
2014,09,12,11,41,20.30
2014,09,12,11,42,20.30
2014,09,12,11,43,20.20
2014,09,12,11,44,20.20
2014,09,12,11,45,20.20
2014,09,12,11,46,20.30
2014,09,12,11,47,20.30
2014,09,12,11,48,20.30
2014,09,12,11,49,20.30
2014,09,12,11,50,20.30
2014,09,12,11,51,20.30
2014,09,12,11,52,20.30
2014,09,12,11,53,20.30
2014,09,12,11,54,20.30
2014,09,12,11,55,20.30
2014,09,12,11,56,20.30
2014,09,12,11,57,20.30
2014,09,12,11,58,20.40
2014,09,12,11,59,20.50
2014,09,12,12,00,20.50
2014,09,12,12,01,20.60
2014,09,12,12,02,20.70
2014,09,12,12,03,20.70
2014,09,12,12,04,20.70
2014,09,12,12,05,20.70
2014,09,12,12,06,20.80
2014,09,12,12,07,20.80
2014,09,12,12,08,20.80
2014,09,12,12,09,20.80
2014,09,12,12,10,20.90
2014,09,12,12,11,20.90
2014,09,12,12,12,21.00
2014,09,12,12,13,21.00
2014,09,12,12,14,21.10
2014,09,12,12,15,21.10
2014,09,12,12,16,21.10
2014,09,12,12,17,21.10
2014,09,12,12,18,21.10
2014,09,12,12,19,21.20
2014,09,12,12,20,21.20
2014,09,12,12,21,21.20
2014,09,12,12,22,21.20
2014,09,12,12,23,21.20
2014,09,12,12,24,21.10
2014,09,12,12,25,21.10
2014,09,12,12,26,21.10
2014,09,12,12,27,21.10
2014,09,12,12,28,21.10
2014,09,12,12,29,21.10
2014,09,12,12,30,21.10
2014,09,12,12,31,21.20
2014,09,12,12,32,21.20
2014,09,12,12,33,21.30
2014,09,12,12,34,21.30
2014,09,12,12,35,21.30
2014,09,12,12,36,21.30
2014,09,12,12,37,21.40
2014,09,12,12,38,21.40
2014,09,12,12,39,21.40
2014,09,12,12,40,21.50
2014,09,12,12,41,21.50
2014,09,12,12,42,21.60
2014,09,12,12,43,21.60
2014,09,12,12,44,21.60
2014,09,12,12,45,21.60
2014,09,12,12,46,21.60
2014,09,12,12,47,21.60
2014,09,12,12,48,21.60
2014,09,12,12,49,21.60
2014,09,12,12,50,21.60
2014,09,12,12,51,21.60
2014,09,12,12,52,21.60
2014,09,12,12,53,21.60
2014,09,12,12,54,21.60
2014,09,12,12,55,21.60
2014,09,12,12,56,21.70
2014,09,12,12,57,21.70
2014,09,12,12,58,21.70
2014,09,12,12,59,21.80
2014,09,12,13,00,21.80
2014,09,12,13,01,21.80
2014,09,12,13,02,21.90
2014,09,12,13,03,21.90
2014,09,12,13,04,21.90
2014,09,12,13,05,21.90
2014,09,12,13,06,22.00
2014,09,12,13,07,22.00
2014,09,12,13,08,22.00
2014,09,12,13,09,22.00
2014,09,12,13,10,22.00
2014,09,12,13,11,22.00
2014,09,12,13,12,22.10
2014,09,12,13,13,22.10
2014,09,12,13,14,22.10
2014,09,12,13,15,22.10
2014,09,12,13,16,22.10
2014,09,12,13,17,22.10
2014,09,12,13,18,22.10
2014,09,12,13,19,22.10
2014,09,12,13,20,22.20
2014,09,12,13,21,22.20
2014,09,12,13,22,22.30
2014,09,12,13,23,22.30
2014,09,12,13,24,22.30
2014,09,12,13,25,22.30
2014,09,12,13,26,22.30
2014,09,12,13,27,22.30
2014,09,12,13,28,22.30
2014,09,12,13,29,22.30
2014,09,12,13,30,22.40
2014,09,12,13,31,22.40
2014,09,12,13,32,22.40
2014,09,12,13,33,22.50
2014,09,12,13,34,22.60
2014,09,12,13,35,22.60
2014,09,12,13,36,22.60
2014,09,12,13,37,22.70
2014,09,12,13,38,22.70
2014,09,12,13,39,22.70
2014,09,12,13,40,22.80
2014,09,12,13,41,22.80
2014,09,12,13,42,22.80
2014,09,12,13,43,22.90
2014,09,12,13,44,22.90
2014,09,12,13,45,22.90
2014,09,12,13,46,22.90
2014,09,12,13,47,22.90
2014,09,12,13,48,23.00
2014,09,12,13,49,23.00
2014,09,12,13,50,23.10
2014,09,12,13,51,23.10
2014,09,12,13,52,23.10
2014,09,12,13,53,23.20
2014,09,12,13,54,23.20
2014,09,12,13,55,23.20
2014,09,12,13,56,23.20
2014,09,12,13,57,23.30
2014,09,12,13,58,23.30
2014,09,12,13,59,23.30
2014,09,12,14,00,23.30
2014,09,12,14,01,23.30
2014,09,12,14,02,23.30
2014,09,12,14,03,23.30
2014,09,12,14,04,23.30
2014,09,12,14,05,23.20
2014,09,12,14,06,23.20
2014,09,12,14,07,23.20
2014,09,12,14,08,23.20
2014,09,12,14,09,23.10
2014,09,12,14,10,23.10
2014,09,12,14,11,23.10
2014,09,12,14,12,23.10
2014,09,12,14,13,23.10
2014,09,12,14,14,23.10
2014,09,12,14,15,23.10
2014,09,12,14,16,23.10
2014,09,12,14,17,23.10
2014,09,12,14,18,23.10
2014,09,12,14,19,23.20
2014,09,12,14,20,23.20
2014,09,12,14,21,23.30
2014,09,12,14,22,23.30
2014,09,12,14,23,23.30
2014,09,12,14,24,23.30
2014,09,12,14,25,23.30
2014,09,12,14,26,23.30
2014,09,12,14,27,23.30
2014,09,12,14,28,23.40
2014,09,12,14,29,23.40
2014,09,12,14,30,23.40
2014,09,12,14,31,23.40
2014,09,12,14,32,23.50
2014,09,12,14,33,23.50
2014,09,12,14,34,23.50
2014,09,12,14,35,23.50
2014,09,12,14,36,23.60
2014,09,12,14,37,23.60
2014,09,12,14,38,23.70
2014,09,12,14,39,23.70
2014,09,12,14,40,23.70
2014,09,12,14,41,23.80
2014,09,12,14,42,23.80
2014,09,12,14,43,23.80
2014,09,12,14,44,23.90
2014,09,12,14,45,23.90
2014,09,12,14,46,23.90
2014,09,12,14,47,23.80
2014,09,12,14,48,23.80
2014,09,12,14,49,23.80
2014,09,12,14,50,23.80
2014,09,12,14,51,23.80
2014,09,12,14,52,23.80
2014,09,12,14,53,23.80
2014,09,12,14,54,23.80
2014,09,12,14,55,23.80
2014,09,12,14,56,23.70
2014,09,12,14,57,23.70
2014,09,12,14,58,23.60
2014,09,12,14,59,23.50
2014,09,12,15,00,23.50
2014,09,12,15,01,23.50
2014,09,12,15,02,23.50
2014,09,12,15,03,23.40
2014,09,12,15,04,23.40
2014,09,12,15,05,23.40
2014,09,12,15,06,23.40
2014,09,12,15,07,23.40
2014,09,12,15,08,23.40
2014,09,12,15,09,23.40
2014,09,12,15,10,23.40
2014,09,12,15,11,23.40
2014,09,12,15,12,23.40
2014,09,12,15,13,23.40
2014,09,12,15,14,23.40
2014,09,12,15,15,23.30
2014,09,12,15,16,23.30
2014,09,12,15,17,23.30
2014,09,12,15,18,23.30
2014,09,12,15,19,23.30
2014,09,12,15,20,23.30
2014,09,12,15,21,23.30
2014,09,12,15,22,23.30
2014,09,12,15,23,23.40
2014,09,12,15,24,23.40
2014,09,12,15,25,23.40
2014,09,12,15,26,23.40
2014,09,12,15,27,23.50
2014,09,12,15,28,23.50
2014,09,12,15,29,23.50
2014,09,12,15,30,23.60
2014,09,12,15,31,23.60
2014,09,12,15,32,23.60
2014,09,12,15,33,23.70
2014,09,12,15,34,23.70
2014,09,12,15,35,23.70
2014,09,12,15,36,23.70
2014,09,12,15,37,23.80
2014,09,12,15,38,23.80
2014,09,12,15,39,23.80
2014,09,12,15,40,23.80
2014,09,12,15,41,23.80
2014,09,12,15,42,23.80
2014,09,12,15,43,23.70
2014,09,12,15,44,23.70
2014,09,12,15,45,23.70
2014,09,12,15,46,23.70
2014,09,12,15,47,23.70
2014,09,12,15,48,23.70
2014,09,12,15,49,23.70
2014,09,12,15,50,23.70
2014,09,12,15,51,23.70
2014,09,12,15,52,23.70
2014,09,12,15,53,23.70
2014,09,12,15,54,23.80
2014,09,12,15,55,23.80
2014,09,12,15,56,23.80
2014,09,12,15,57,23.80
2014,09,12,15,58,23.80
2014,09,12,15,59,23.80
2014,09,12,16,00,23.90
2014,09,12,16,01,23.90
2014,09,12,16,02,23.90
2014,09,12,16,03,23.90
2014,09,12,16,04,23.90
2014,09,12,16,05,23.90
2014,09,12,16,06,23.90
2014,09,12,16,07,23.90
2014,09,12,16,08,24.00
2014,09,12,16,09,24.00
2014,09,12,16,10,24.10
2014,09,12,16,11,24.10
2014,09,12,16,12,24.10
2014,09,12,16,13,24.10
2014,09,12,16,14,24.10
2014,09,12,16,15,24.10
2014,09,12,16,16,24.10
2014,09,12,16,17,24.10
2014,09,12,16,18,24.10
2014,09,12,16,19,24.10
2014,09,12,16,20,24.10
2014,09,12,16,21,24.10
2014,09,12,16,22,24.10
2014,09,12,16,23,24.20
2014,09,12,16,24,24.20
2014,09,12,16,25,24.20
2014,09,12,16,26,24.20
2014,09,12,16,27,24.30
2014,09,12,16,28,24.30
2014,09,12,16,29,24.30
2014,09,12,16,30,24.30
2014,09,12,16,31,24.30
2014,09,12,16,32,24.30
2014,09,12,16,33,24.30
2014,09,12,16,34,24.40
2014,09,12,16,35,24.40
2014,09,12,16,36,24.40
2014,09,12,16,37,24.40
2014,09,12,16,38,24.40
2014,09,12,16,39,24.40
2014,09,12,16,40,24.40
2014,09,12,16,41,24.30
2014,09,12,16,42,24.30
2014,09,12,16,43,24.30
2014,09,12,16,44,24.30
2014,09,12,16,45,24.30
2014,09,12,16,46,24.30
2014,09,12,16,47,24.30
2014,09,12,16,48,24.30
2014,09,12,16,49,24.30
2014,09,12,16,50,24.40
2014,09,12,16,51,24.40
2014,09,12,16,52,24.40
2014,09,12,16,53,24.50
2014,09,12,16,54,24.60
2014,09,12,16,55,24.70
2014,09,12,16,56,24.80
2014,09,12,16,57,24.80
2014,09,12,16,58,24.90
2014,09,12,16,59,24.90
2014,09,12,17,00,24.90
2014,09,12,17,01,24.90
2014,09,12,17,02,24.90
2014,09,12,17,03,25.00
2014,09,12,17,04,25.00
2014,09,12,17,05,25.00
2014,09,12,17,06,25.00
2014,09,12,17,07,25.10
2014,09,12,17,08,25.10
2014,09,12,17,09,25.10
2014,09,12,17,10,25.10
2014,09,12,17,11,25.10
2014,09,12,17,12,25.10
2014,09,12,17,13,25.10
2014,09,12,17,14,25.10
2014,09,12,17,15,25.10
2014,09,12,17,16,25.10
2014,09,12,17,17,25.10
2014,09,12,17,18,25.10
2014,09,12,17,19,25.00
2014,09,12,17,20,25.00
2014,09,12,17,21,25.00
2014,09,12,17,22,25.00
2014,09,12,17,23,25.10
2014,09,12,17,24,25.00
2014,09,12,17,25,25.00
2014,09,12,17,26,25.00
2014,09,12,17,27,24.90
2014,09,12,17,28,24.90
2014,09,12,17,29,24.80
2014,09,12,17,30,24.80
2014,09,12,17,31,24.80
2014,09,12,17,32,24.80
2014,09,12,17,33,24.80
2014,09,12,17,34,24.80
2014,09,12,17,35,24.80
2014,09,12,17,36,24.80
2014,09,12,17,37,24.80
2014,09,12,17,38,24.80
2014,09,12,17,39,24.80